Weather History for Caslav, Czech Republic

Change the Weather History Date:

Sunday, November 11, 2012

  Actual Average Record
Temperature  
Mean Temperature 47 °F -  
Max Temperature 50 °F - - ()
Min Temperature 44 °F - - ()
Degree Days  
Heating Degree Days 18    
Moisture  
Dew Point 43 °F    
Average Humidity 87    
Maximum Humidity 100    
Minimum Humidity 76    
Precipitation  
Precipitation 0.00 in - - ()
Sea Level Pressure  
Sea Level Pressure 29.87 in    
Wind  
Wind Speed 7 mph ()    
Max Wind Speed 13 mph    
Max Gust Speed -    
Visibility 6.2 miles    
Events Rain    
T = Trace of Precipitation, MM = Missing Value Source: Averaged Metar Reports

Daily Weather History Graph

Daily Weather History Graph

Search for Another Location

Airport:

Trip Planner

Search our weather history database for the weather conditions in past years. The results will help you decide how hot, cold, wet, or windy it might be!

Date:

Astronomy

Nov. 11, 2012 Rise Set
Actual Time 7:04 AM CET 4:19 PM CET
Civil Twilight 6:29 AM CET 4:54 PM CET
Nautical Twilight 5:50 AM CET 5:33 PM CET
Astronomical Twilight 5:13 AM CET 6:11 PM CET
Moon 3:44 AM CET (11/11) 2:43 PM CET (11/11)
Length of Visible Light 10h 24m
Length of Day
9h 14m
Waning Crescent, 9% of the Moon is Illuminated
Nov 11
Waning Crescent
Nov 13
New
Nov 20
First Quarter
Nov 28
Full
Dec 6
Last Quarter

Hourly Weather History & Observations

Time (CET) Temp. Windchill Dew Point Humidity Pressure Visibility Wind Dir Wind Speed Gust Speed Precip Events Conditions
12:00 AM 44.6 °F 39.7 °F 41.0 °F 87% 29.77 in - SE 9.2 mph - N/A   Clear
1:00 AM 44.6 °F 39.2 °F 41.0 °F 87% 29.80 in 6.2 mi SE 10.4 mph - N/A   Mostly Cloudy
2:00 AM 44.6 °F 39.2 °F 41.0 °F 87% 29.80 in 6.2 mi SE 10.4 mph - N/A   Mostly Cloudy
3:00 AM 46.4 °F 42.9 °F 41.0 °F 81% 29.80 in 6.2 mi SE 6.9 mph - N/A   Mostly Cloudy
4:00 AM 46.4 °F 42.9 °F 41.0 °F 81% 29.83 in 6.2 mi SSE 6.9 mph - N/A   Overcast
5:00 AM 46.4 °F 41.9 °F 42.8 °F 87% 29.83 in 6.2 mi SSE 9.2 mph - N/A   Mostly Cloudy
6:00 AM 46.4 °F 42.4 °F 42.8 °F 87% 29.83 in 6.2 mi SE 8.1 mph - N/A   Overcast
7:00 AM 46.4 °F 42.4 °F 42.8 °F 87% 29.83 in 6.2 mi SSE 8.1 mph - N/A   Overcast
8:00 AM 46.4 °F 41.9 °F 42.8 °F 87% 29.86 in 6.2 mi SSE 9.2 mph - N/A   Mostly Cloudy
9:00 AM 46.4 °F 40.7 °F 42.8 °F 87% 29.86 in 6.2 mi SSE 12.7 mph - N/A   Mostly Cloudy
10:00 AM 48.2 °F - 42.8 °F 82% 29.86 in 6.2 mi SE 11.5 mph - N/A   Mostly Cloudy
11:00 AM 50.0 °F - 42.8 °F 76% 29.86 in 6.2 mi SSE 12.7 mph - N/A   Mostly Cloudy
12:00 PM 50.0 °F - 44.6 °F 82% 29.89 in 6.2 mi SSE 8.1 mph - N/A   Mostly Cloudy
1:00 PM 50.0 °F - 42.8 °F 76% 29.86 in 6.2 mi SSE 4.6 mph - N/A   Mostly Cloudy
2:00 PM 50.0 °F - 42.8 °F 76% 29.86 in - Variable 2.3 mph - N/A   Clear
3:00 PM 50.0 °F - 44.6 °F 82% 29.86 in 6.2 mi NNE 3.5 mph - N/A Rain Light Rain
4:00 PM 50.0 °F - 44.6 °F 82% 29.86 in - ESE 4.6 mph - N/A   Clear
5:00 PM 46.4 °F - 44.6 °F 93% 29.89 in - Variable 1.2 mph - N/A   Clear
6:00 PM 46.4 °F 45.2 °F 44.6 °F 93% 29.89 in - WNW 3.5 mph - N/A   Clear
7:00 PM 46.4 °F 44.3 °F 44.6 °F 93% 29.92 in - WSW 4.6 mph - N/A   Clear
8:00 PM 44.6 °F 41.4 °F 44.6 °F 100% 29.95 in 6.2 mi WNW 5.8 mph - N/A   Mostly Cloudy
9:00 PM 44.6 °F 42.2 °F 44.6 °F 100% 29.98 in - West 4.6 mph - N/A   Clear
10:00 PM 44.6 °F 42.2 °F 44.6 °F 100% 30.04 in 6.2 mi WSW 4.6 mph - N/A   Overcast
11:00 PM 44.6 °F - 44.6 °F 100% 30.04 in 6.2 mi West 2.3 mph - N/A Rain Light Rain